Weather History for Minchumina, AK

Change the Weather History Date:

Tuesday, March 5, 2013

  Actual Average Record
Temperature  
Mean Temperature 10 °F -  
Max Temperature 21 °F 14 °F 33 °F (2009)
Min Temperature 0 °F 0 °F -27 °F (2012)
Degree Days  
Heating Degree Days 54    
Moisture  
Dew Point 2 °F    
Average Humidity 73    
Maximum Humidity 100    
Minimum Humidity 54    
Precipitation  
Precipitation 0.00 in - - ()
Sea Level Pressure  
Sea Level Pressure 30.06 in    
Wind  
Wind Speed 0 mph (SW)    
Max Wind Speed 4 mph    
Max Gust Speed -    
Visibility 10 miles    
Events      
Averages and records for this station are not official NWS values.
T = Trace of Precipitation, MM = Missing Value Source: NWS Daily Summary

Daily Weather History Graph

Daily Weather History Graph

Search for Another Location

Airport:

Trip Planner

Search our weather history database for the weather conditions in past years. The results will help you decide how hot, cold, wet, or windy it might be!

Date:

Astronomy

Mar. 05, 2013 Rise Set
Actual Time 8:00 AM AKST 6:41 PM AKST
Civil Twilight 7:13 AM AKST 7:29 PM AKST
Nautical Twilight 6:18 AM AKST 8:24 PM AKST
Astronomical Twilight 5:21 AM AKST 9:22 PM AKST
Moon 5:08 AM AKST (3/5) 10:46 AM AKST (3/5)
Length of Visible Light 12h 15m
Length of Day
10h 41m
Last Quarter, 39% of the Moon is Illuminated
Mar 5
Last Quarter
Mar 11
New
Mar 19
First Quarter
Mar 27
Full
Apr 2
Last Quarter

Hourly Weather History & Observations

Time (AKST) Temp. Windchill Dew Point Humidity Pressure Visibility Wind Dir Wind Speed Gust Speed Precip Events Conditions
12:16 AM 6.8 °F - -0.4 °F 72% 30.24 in 10.0 mi Calm Calm - N/A   Partly Cloudy
12:36 AM 8.6 °F - 3.2 °F 79% 30.23 in 10.0 mi Calm Calm - N/A   Partly Cloudy
12:56 AM 8.6 °F - 1.4 °F 73% 30.22 in 10.0 mi Calm Calm - N/A   Mostly Cloudy
1:16 AM 8.6 °F - 3.2 °F 79% 30.22 in 10.0 mi Calm Calm - N/A   Partly Cloudy
1:36 AM 6.8 °F - -0.4 °F 72% 30.22 in 10.0 mi Calm Calm - N/A   Clear
1:56 AM 6.8 °F - 1.4 °F 79% 30.21 in 10.0 mi Calm Calm - N/A   Clear
2:16 AM 3.2 °F - -0.4 °F 85% 30.21 in 10.0 mi Calm Calm - N/A   Clear
2:36 AM 3.2 °F - 1.4 °F 92% 30.21 in 10.0 mi Calm Calm - N/A   Clear
2:56 AM 3.2 °F - -0.4 °F 85% 30.20 in 10.0 mi Calm Calm - N/A   Clear
3:16 AM 3.2 °F - 1.4 °F 92% 30.19 in 10.0 mi Calm Calm - N/A   Clear
3:36 AM 6.8 °F - 3.2 °F 85% 30.19 in 10.0 mi Calm Calm - N/A   Clear
4:16 AM 5.0 °F - 5.0 °F 100% 30.18 in 10.0 mi Calm Calm - N/A   Clear
4:36 AM 6.8 °F - 1.4 °F 79% 30.17 in 10.0 mi Calm Calm - N/A   Clear
4:56 AM 1.4 °F - -2.2 °F 85% 30.17 in 10.0 mi Calm Calm - N/A   Clear
5:16 AM -0.4 °F - -2.2 °F 92% 30.16 in 10.0 mi Calm Calm - N/A   Clear
5:36 AM 1.4 °F - -2.2 °F 85% 30.16 in 10.0 mi Calm Calm - N/A   Clear
5:56 AM 3.2 °F - 1.4 °F 92% 30.15 in 10.0 mi Calm Calm - N/A   Clear
6:16 AM 1.4 °F - -5.8 °F 72% 30.15 in 10.0 mi Calm Calm - N/A   Clear
6:36 AM -0.4 °F - -0.4 °F 100% 30.15 in 10.0 mi Calm Calm - N/A   Clear
6:56 AM 1.4 °F - 1.4 °F 100% 30.14 in 10.0 mi Calm Calm - N/A   Clear
7:16 AM 3.2 °F - 1.4 °F 92% 30.14 in 10.0 mi Calm Calm - N/A   Clear
7:36 AM 3.2 °F - 1.4 °F 92% 30.14 in 10.0 mi Calm Calm - N/A   Clear
7:56 AM -0.4 °F - -9.4 °F 66% 30.13 in 10.0 mi Calm Calm - N/A   Clear
8:16 AM -0.4 °F - -2.2 °F 92% 30.12 in 10.0 mi Calm Calm - N/A   Clear
8:36 AM 3.2 °F - 1.4 °F 92% 30.12 in 10.0 mi Calm Calm - N/A   Clear
8:56 AM 1.4 °F - -5.8 °F 72% 30.11 in 10.0 mi Calm Calm - N/A   Clear
9:16 AM -0.4 °F - -0.4 °F 100% 30.11 in 10.0 mi Calm Calm - N/A   Clear
9:36 AM 3.2 °F - 1.4 °F 92% 30.11 in 10.0 mi Calm Calm - N/A   Clear
9:56 AM -0.4 °F - -7.6 °F 72% 30.11 in 10.0 mi Calm Calm - N/A   Clear
10:16 AM 1.4 °F - -0.4 °F 92% 30.10 in 10.0 mi Calm Calm - N/A   Clear
10:36 AM 5.0 °F - -2.2 °F 72% 30.10 in 10.0 mi Calm Calm - N/A   Clear
10:56 AM 6.8 °F - 1.4 °F 79% 30.09 in 10.0 mi Calm Calm - N/A   Clear
11:16 AM 8.6 °F 2.0 °F 3.2 °F 79% 30.09 in 10.0 mi WSW 3.5 mph - N/A   Clear
11:36 AM 8.6 °F - 1.4 °F 73% 30.08 in 10.0 mi Calm Calm - N/A   Clear
11:56 AM 8.6 °F - 3.2 °F 79% 30.08 in 10.0 mi Calm Calm - N/A   Clear
12:16 PM 8.6 °F - 1.4 °F 73% 30.07 in 10.0 mi Calm Calm - N/A   Clear
12:36 PM 10.4 °F - 3.2 °F 73% 30.07 in 10.0 mi Calm Calm - N/A   Clear
12:56 PM 12.2 °F - 1.4 °F 62% 30.06 in 10.0 mi Calm Calm - N/A   Clear
1:16 PM 12.2 °F - 3.2 °F 67% 30.05 in 10.0 mi Calm Calm - N/A   Clear
1:36 PM 15.8 °F - 3.2 °F 58% 30.05 in 10.0 mi Calm Calm - N/A   Clear
1:56 PM 15.8 °F - 3.2 °F 58% 30.04 in 10.0 mi Calm Calm - N/A   Clear
2:16 PM 17.6 °F - 5.0 °F 58% 30.03 in 10.0 mi Calm Calm - N/A   Clear
2:36 PM 17.6 °F - 5.0 °F 58% 30.01 in 10.0 mi Calm Calm - N/A   Clear
2:56 PM 19.4 °F - 6.8 °F 58% 30.01 in 10.0 mi Calm Calm - N/A   Clear
3:16 PM 19.4 °F 14.3 °F 5.0 °F 54% 30.00 in 10.0 mi WSW 3.5 mph - N/A   Clear
3:36 PM 19.4 °F - 6.8 °F 58% 29.99 in 10.0 mi Calm Calm - N/A   Clear
3:56 PM 19.4 °F - 6.8 °F 58% 29.98 in 10.0 mi Calm Calm - N/A   Clear
4:16 PM 19.4 °F 14.3 °F 6.8 °F 58% 29.98 in 10.0 mi South 3.5 mph - N/A   Clear
4:36 PM 21.2 °F - 8.6 °F 58% 29.97 in 10.0 mi Calm Calm - N/A   Clear
4:56 PM 21.2 °F - 6.8 °F 54% 29.96 in 10.0 mi Calm Calm - N/A   Clear
5:16 PM 21.2 °F - 8.6 °F 58% 29.96 in 10.0 mi Calm Calm - N/A   Clear
5:36 PM 21.2 °F - 6.8 °F 54% 29.96 in 10.0 mi Calm Calm - N/A   Clear
5:56 PM 19.4 °F - 6.8 °F 58% 29.95 in 10.0 mi Calm Calm - N/A   Clear
6:16 PM 19.4 °F - 6.8 °F 58% 29.95 in 10.0 mi Calm Calm - N/A   Clear
6:36 PM 17.6 °F - 6.8 °F 63% 29.95 in 10.0 mi Calm Calm - N/A   Clear
6:56 PM 17.6 °F - 5.0 °F 58% 29.95 in 10.0 mi Calm Calm - N/A   Clear
7:16 PM 15.8 °F - 3.2 °F 58% 29.94 in 10.0 mi Calm Calm - N/A   Clear
7:36 PM 15.8 °F - 3.2 °F 58% 29.94 in 10.0 mi Calm Calm - N/A   Clear
7:56 PM 14.0 °F - 3.2 °F 62% 29.93 in 10.0 mi Calm Calm - N/A   Clear
8:16 PM 12.2 °F - 3.2 °F 67% 29.93 in 10.0 mi Calm Calm - N/A   Clear
8:36 PM 12.2 °F - 1.4 °F 62% 29.93 in 10.0 mi Calm Calm - N/A   Clear
8:56 PM 12.2 °F - 3.2 °F 67% 29.92 in 10.0 mi Calm Calm - N/A   Clear
9:16 PM 12.2 °F - 1.4 °F 62% 29.92 in 10.0 mi Calm Calm - N/A   Clear
9:36 PM 12.2 °F - 3.2 °F 67% 29.91 in 10.0 mi Calm Calm - N/A   Clear
9:56 PM 10.4 °F - 3.2 °F 73% 29.91 in 10.0 mi Calm Calm - N/A   Clear
10:16 PM 10.4 °F - 1.4 °F 67% 29.91 in 10.0 mi Calm Calm - N/A   Clear
10:36 PM 8.6 °F - 1.4 °F 73% 29.91 in 10.0 mi Calm Calm - N/A   Clear
10:56 PM 10.4 °F - 1.4 °F 67% 29.92 in 10.0 mi Calm Calm - N/A   Clear
11:16 PM 8.6 °F - 1.4 °F 73% 29.91 in 10.0 mi Calm Calm - N/A   Clear
11:36 PM 10.4 °F - 1.4 °F 67% 29.90 in 10.0 mi Calm Calm - N/A   Clear
11:56 PM 8.6 °F - -0.4 °F 67% 29.90 in 10.0 mi Calm Calm - N/A   Clear